Home   Weather   Mainz   Past weeks

Flag for Germany Past Weather in Mainz, Rhineland-Palatinate, Germany — Yesterday and Last 2 Weeks

52 °F

Light rain. Fog.

Feels Like: 52 °F
Forecast: 51 / 58 °F
Wind: No wind

Location: Wiesbaden Airport

Current Time: Oct 24, 2016 at 10:11:11 PM

Latest Report: Oct 24, 2016 at 9:01 PM

Visibility: 4 mi

Pressure: 29.95 "Hg

Humidity: 88%

Dew Point: 48 °F

Location of MainzLocation

Past Weather in Mainz — Graph


Mainz Temperature Yesterday

Maximum temperature yesterday: 52 °F (at 3:58 PM)
Minimum temperature yesterday: 37 °F (at 2:58 AM)
Average temperature yesterday: 45 °F

High & Low Weather Summary for the Past Weeks

High61 °F (Oct 16, 4:58 PM)94% (Oct 18, 8:58 AM)30.28 "Hg (Oct 18, 8:58 AM)
Low37 °F (Oct 23, 2:58 AM)44% (Oct 11, 1:58 PM)29.68 "Hg (Oct 14, 8:58 PM)
Average49 °F74%30.03 "Hg
* Reported Oct 9 9:58 PM — Oct 24 9:01 PM, Mainz, Weather by CustomWeather, © 2016

Note: Actual official high and low records may vary slightly from our data, if they occured in-between our weather recording intervals... More about our weather records


Mainz Weather History for the Previous 24 Hours

Scroll right to see more
Time TempWeatherWind HumidityBarometerVisibility
9:01 PM
Mon, Oct 24
52 °FLight rain. Fog.No wind88%29.95 "Hg4 mi
8:58 PM51 °FLight rain. Fog.No wind88%29.96 "Hg4 mi
8:00 PM52 °FLight rain. Fog.No wind88%29.94 "Hg6 mi
7:58 PM52 °FLight rain. Fog.No wind86%29.95 "HgN/A
6:58 PM52 °FLow clouds.No wind88%29.94 "HgN/A
6:03 PM52 °FLow clouds.No wind88%29.91 "HgN/A
5:58 PM52 °FLow clouds.No wind86%29.92 "HgN/A
5:00 PM52 °FDrizzle. Low clouds.No wind88%29.90 "HgN/A
4:58 PM52 °FDrizzle. Low clouds.No wind88%29.91 "HgN/A
3:58 PM52 °FLight rain. Fog.3 mph88%29.90 "Hg4 mi
3:04 PM52 °FLight rain. Low clouds.No wind82%29.90 "Hg3 mi
1:58 PM52 °FLight rain. Low clouds.No wind82%29.91 "Hg3 mi
1:04 PM50 °FLight rain. Low clouds.No wind88%29.91 "Hg2 mi
12:58 PM50 °FLight rain. Low clouds.No wind88%29.92 "Hg2 mi
12:02 PM50 °FLight rain. Partly sunny.No wind82%29.92 "Hg2 mi
11:58 AM50 °FLight rain. Partly sunny.No wind82%29.93 "Hg5 mi
11:03 AM50 °FLight rain. Overcast.7 mph82%29.92 "Hg2 mi
10:58 AM50 °FLight rain. Low clouds.5 mph82%29.93 "Hg2 mi
9:58 AM49 °FLight rain. Overcast.6 mph82%29.93 "Hg4 mi
8:58 AM48 °FLight rain. Overcast.6 mph82%29.92 "Hg5 mi
7:58 AM48 °FLight rain. Overcast.6 mph82%29.91 "HgN/A
6:58 AM48 °FOvercast.5 mph82%29.92 "HgN/A
5:58 AM48 °FOvercast.6 mph82%29.90 "HgN/A
5:00 AM48 °FLight rain. Overcast.5 mph76%29.91 "HgN/A
4:58 AM48 °FMostly cloudy.5 mph82%29.92 "HgN/A
3:58 AM48 °FOvercast.No wind80%29.92 "HgN/A
3:00 AM48 °FLight rain. Overcast.5 mph76%29.90 "HgN/A
2:58 AM48 °FOvercast.5 mph82%29.92 "HgN/A
1:58 AM48 °FOvercast.3 mph82%29.91 "HgN/A
1:02 AM48 °FOvercast.6 mph82%29.90 "HgN/A
12:58 AM48 °FDrizzle. Overcast.6 mph78%29.90 "HgN/A
11:58 PM
Sun, Oct 23
49 °FLight rain. Mostly cloudy.5 mph76%29.89 "HgN/A
10:58 PM50 °FLight rain. Overcast.6 mph71%29.89 "HgN/A
Weather by CustomWeather, © 2016

See weather overviewHow to use our weather pages